Weather History for Crescent City, CA

Change the Weather History Date:

Thursday, November 1, 2012

  Actual Average Record
Temperature  
Mean Temperature 58 °F 52 °F  
Max Temperature 61 °F 59 °F 75 °F (1966)
Min Temperature 55 °F 45 °F 27 °F (2002)
Degree Days  
Heating Degree Days 10 13  
Month to date heating degree days 13  
Since 1 July heating degree days 1177  
Cooling Degree Days 0 0  
Month to date cooling degree days 0  
Year to date cooling degree days 0  
Growing Degree Days 6 (Base 50)    
Moisture  
Dew Point 52 °F    
Average Humidity 83    
Maximum Humidity 93    
Minimum Humidity 72    
Precipitation  
Precipitation 0.00 in 0.32 in 1.70 in (1948)
Month to date precipitation 0.00 0.32  
Year to date precipitation 50.67 43.35  
Since 1 July precipitation 7.29 6.42  
Snow  
Snow 0.00 in - - ()
Month to date snowfall 0.0  
Since 1 July snowfall 0.0  
Since 1 September snowfall 0.0  
Snow Depth -    
Sea Level Pressure  
Sea Level Pressure 30.00 in    
Wind  
Wind Speed 12 mph (SSE)    
Max Wind Speed 18 mph    
Max Gust Speed 28 mph    
Visibility 9 miles    
Events      
T = Trace of Precipitation, MM = Missing Value Source: NWS Daily Summary

Daily Weather History Graph

Daily Weather History Graph

Search for Another Location

Airport:

Trip Planner

Search our weather history database for the weather conditions in past years. The results will help you decide how hot, cold, wet, or windy it might be!

Date:

Astronomy

Nov. 01, 2012 Rise Set
Actual Time 7:49 AM PDT 6:10 PM PDT
Civil Twilight 7:20 AM PDT 6:39 PM PDT
Nautical Twilight 6:48 AM PDT 7:12 PM PDT
Astronomical Twilight 6:15 AM PDT 7:44 PM PDT
Moon 8:10 PM PDT (11/1) 10:29 AM PDT (11/1)
Length of Visible Light 11h 18m
Length of Day
10h 20m
Waning Gibbous, 92% of the Moon is Illuminated
Nov 1
Waning Gibbous
Nov 6
Last Quarter
Nov 13
New
Nov 20
First Quarter
Nov 28
Full

Hourly Weather History & Observations

Time (PDT) Temp. Dew Point Humidity Pressure Visibility Wind Dir Wind Speed Gust Speed Precip Events Conditions
12:12 AM 55.4 °F 53.6 °F 94% 29.91 in 9.0 mi SSE 11.5 mph 20.7 mph N/A   Overcast
12:48 AM 55.4 °F 53.6 °F 94% 29.92 in 7.0 mi South 11.5 mph - N/A   Overcast
12:56 AM 55.0 °F 54.0 °F 96% 29.93 in 7.0 mi SSE 9.2 mph - N/A   Overcast
1:07 AM 55.4 °F 53.6 °F 94% 29.93 in 7.0 mi SSE 9.2 mph - N/A   Overcast
1:40 AM 55.4 °F 53.6 °F 94% 29.93 in 7.0 mi SSE 12.7 mph - N/A   Overcast
1:56 AM 55.0 °F 54.0 °F 96% 29.94 in 7.0 mi SSE 13.8 mph - N/A   Overcast
2:21 AM 55.4 °F 53.6 °F 94% 29.94 in 9.0 mi SSE 13.8 mph - N/A   Overcast
2:56 AM 55.9 °F 54.0 °F 93% 29.95 in 9.0 mi SSE 15.0 mph 21.9 mph N/A   Overcast
4:33 AM 55.4 °F 53.6 °F 94% 29.96 in 9.0 mi SSE 13.8 mph - N/A   Overcast
4:47 AM 55.4 °F 53.6 °F 94% 29.97 in 8.0 mi SSE 13.8 mph - N/A   Overcast
5:25 AM 55.4 °F 53.6 °F 94% 29.97 in 8.0 mi SSE 13.8 mph - N/A   Overcast
5:56 AM 55.0 °F 54.0 °F 96% 29.98 in 10.0 mi SSE 12.7 mph - N/A   Overcast
6:56 AM 55.9 °F 53.1 °F 90% 29.99 in 10.0 mi SSE 10.4 mph - N/A   Overcast
7:56 AM 55.0 °F 52.0 °F 89% 30.00 in 10.0 mi SSE 11.5 mph - N/A   Overcast
9:56 AM 59.0 °F 52.0 °F 78% 30.04 in 10.0 mi SSE 11.5 mph - N/A   Overcast
10:56 AM 60.1 °F 51.1 °F 72% 30.05 in 10.0 mi SSE 11.5 mph - N/A   Overcast
11:56 AM 61.0 °F 52.0 °F 72% 30.08 in 10.0 mi South 11.5 mph 27.6 mph N/A   Mostly Cloudy
12:56 PM 61.0 °F 52.0 °F 72% 30.07 in 10.0 mi South 11.5 mph - N/A   Clear
1:56 PM 61.0 °F 52.0 °F 72% 30.06 in 10.0 mi SSE 11.5 mph - N/A   Clear
2:56 PM 61.0 °F 52.0 °F 72% 30.04 in 10.0 mi South 10.4 mph - N/A   Clear
3:56 PM 59.0 °F 52.0 °F 78% 30.04 in 10.0 mi South 8.1 mph - N/A   Clear
4:56 PM 57.0 °F 52.0 °F 83% 30.04 in 10.0 mi SSW 6.9 mph - N/A   Clear
5:56 PM 55.0 °F 52.0 °F 89% 30.04 in 9.0 mi SE 4.6 mph - N/A   Clear
6:56 PM 53.1 °F 51.1 °F 93% 30.05 in 10.0 mi Calm Calm - N/A   Clear
7:56 PM 51.1 °F 48.9 °F 92% 30.06 in 8.0 mi Calm Calm - N/A   Clear
8:56 PM 50.0 °F 48.9 °F 96% 30.06 in 7.0 mi East 4.6 mph - N/A   Partly Cloudy
9:56 PM 50.0 °F 48.0 °F 93% 30.07 in 10.0 mi East 3.5 mph - N/A   Partly Cloudy
10:56 PM 50.0 °F 48.0 °F 93% 30.07 in 10.0 mi East 3.5 mph - N/A   Partly Cloudy
11:56 PM 50.0 °F 48.0 °F 93% 30.05 in 10.0 mi East 4.6 mph - N/A   Partly Cloudy